History for Miami, FL

Friday, March 1, 2013 — View Current Conditions

Jump to Data:

Date:
Airport Code:
Recently Viewed Airport Codes: KMIA
Daily Summary
  Actual Average Record
Temperature
Mean Temperature 64°F 71°F  
Max Temperature 67°F 79°F 88°F (2011)
Min Temperature 60°F 64°F 39°F (1920)
Degree Days
Heating Degree Days 1 1  
Month to date heating degree days 1 1  
Since 1 July heating degree days 37 117  
Cooling Degree Days 0 7  
Month to date cooling degree days 0 7  
Year to date cooling degree days 479 329  
Growing Degree Days 13 (Base 50)    
Moisture
Dew Point 51°F    
Average Humidity 65    
Maximum Humidity 73    
Minimum Humidity 56    
Precipitation
Precipitation T in 0.08 in 3.17 in (1980)
Month to date precipitation T 0.08  
Year to date precipitation 2.39 3.95  
Snow
Snow 0.00 in in in ()
Month to date snowfall 0.0  
Since 1 July snowfall 0.0  
Snow Depth 0.00 in    
Sea Level Pressure
Sea Level Pressure 29.97 in    
Wind
Wind Speed 6 mph (NW)    
Max Wind Speed 12 mph    
Max Gust Speed 16 mph    
Visibility 10 miles    
Events Rain    
T = Trace of Precipitation, MM = Missing Value Source: NWS Daily Summary

Show full METARS

(help) - Comma Delimited File

Hourly Observations

Time(EST) Temperature Dew Point Humidity Sea Level Pressure Visibility Wind Direction Wind Speed Gust Speed Precipitation Events Conditions
12:53 AM 66.2°F 53.6°F 64% 29.95 in 10.0 miles WNW 4.6 mph - N/A   Overcast
1:53 AM 66.0°F 53.1°F 63% 29.94 in 10.0 miles NW 5.8 mph - N/A   Overcast
2:53 AM 64.9°F 53.1°F 65% 29.94 in 10.0 miles WNW 5.8 mph - N/A   Overcast
3:53 AM 64.0°F 55.0°F 73% 29.95 in 10.0 miles West 4.6 mph - 0.00 in Rain Light Rain
4:53 AM 64.0°F 55.0°F 73% 29.94 in 10.0 miles WNW 3.5 mph - 0.00 in Rain Light Rain
5:53 AM 63.0°F 55.0°F 75% 29.95 in 10.0 miles NNW 4.6 mph - 0.00 in   Overcast
6:53 AM 63.0°F 53.1°F 70% 29.96 in 10.0 miles WNW 4.6 mph - N/A   Overcast
7:53 AM 64.0°F 51.1°F 63% 29.98 in 10.0 miles NNW 5.8 mph - 0.00 in   Overcast
8:53 AM 63.0°F 52.0°F 67% 29.98 in 10.0 miles NW 8.1 mph - N/A   Overcast
9:53 AM 64.9°F 53.1°F 65% 29.98 in 10.0 miles Variable 4.6 mph - N/A   Overcast
10:53 AM 64.0°F 50.0°F 60% 30.00 in 10.0 miles NNW 9.2 mph - N/A   Overcast
11:53 AM 64.9°F 50.0°F 58% 29.99 in 10.0 miles Variable 4.6 mph - N/A   Overcast
12:53 PM 64.4°F 51.8°F 64% 29.97 in 10.0 miles Variable 4.6 mph - N/A   Overcast
1:53 PM 64.4°F 51.8°F 64% 29.95 in 10.0 miles WNW 3.5 mph - N/A Rain Light Rain
2:53 PM 66.0°F 52.0°F 60% 29.94 in 10.0 miles WNW 4.6 mph - 0.00 in   Overcast
3:53 PM 64.9°F 51.1°F 61% 29.93 in 10.0 miles West 4.6 mph - N/A   Overcast
4:53 PM 64.0°F 52.0°F 65% 29.94 in 10.0 miles WNW 4.6 mph - 0.00 in   Overcast
5:53 PM 63.0°F 51.1°F 65% 29.95 in 10.0 miles NW 4.6 mph - 0.00 in   Overcast
6:53 PM 63.0°F 48.9°F 60% 29.97 in 10.0 miles NNW 9.2 mph - N/A   Overcast
7:53 PM 63.0°F 46.9°F 56% 29.99 in 10.0 miles NNW 9.2 mph - N/A   Overcast
8:53 PM 61.0°F 46.9°F 60% 30.00 in 10.0 miles NW 3.5 mph - 0.00 in   Overcast
9:53 PM 61.0°F 46.9°F 60% 30.01 in 10.0 miles WNW 5.8 mph - N/A   Overcast
10:53 PM 60.1°F 46.9°F 62% 30.00 in 10.0 miles NW 5.8 mph - N/A   Mostly Cloudy
11:53 PM 60.1°F 46.0°F 60% 30.00 in 10.0 miles NW 6.9 mph - N/A   Overcast